Location: Izdebno
(52.6670°N, 16.2170°E)
Time: 22:40:23
(UTC+02:00)

Transit 4A - Visible Passes

Search period start: 15 July 2024 00:00
Search period end: 25 July 2024 00:00
Orbit: 870 x 973 km, 66.8° (Epoch: 15 July)

Date Brightness Start Highest point End Pass type
(mag) Time Alt. Az. Time Alt. Az. Time Alt. Az.
15 Jul 9.8 00:04:39 10° NW 00:09:39 27° NNE 00:14:45 10° E visible
15 Jul 8.2 01:51:02 10° NW 01:57:00 70° NE 02:03:06 10° SE visible
15 Jul 8.7 03:37:49 10° NW 03:42:59 31° WSW 03:48:14 10° S visible
15 Jul 10.3 22:26:29 10° NW 22:30:50 21° N 22:35:14 10° NE visible
16 Jul 9.6 00:13:44 10° NW 00:19:00 32° NNE 00:24:22 10° E visible
16 Jul 7.9 02:00:04 10° NW 02:06:04 89° NE 02:12:13 10° SE visible
16 Jul 9.1 03:47:14 10° WNW 03:51:44 22° WSW 03:56:18 10° SSW visible
16 Jul 10.2 22:35:52 10° NW 22:40:18 21° N 22:44:48 10° ENE visible
17 Jul 9.2 00:22:47 10° NW 00:28:18 38° NNE 00:33:56 10° E visible
17 Jul 7.8 02:09:07 10° NW 02:15:05 70° SW 02:21:10 10° SSE visible
17 Jul 9.4 03:57:00 10° WNW 04:00:26 16° WSW 04:03:54 10° SW visible
17 Jul 10.0 22:45:08 10° NW 22:49:45 23° NNE 22:54:26 10° ENE visible
18 Jul 8.8 00:31:47 10° NW 00:37:32 46° NE 00:43:24 10° ESE visible
18 Jul 8.1 02:18:13 10° NW 02:24:01 52° WSW 02:29:10 14° SSE visible
18 Jul 9.7 04:07:57 10° W 04:09:03 10° W 04:10:10 10° WSW visible
18 Jul 9.8 22:54:20 10° NW 22:59:10 25° NNE 23:04:06 10° ENE visible
19 Jul 8.4 00:40:49 10° NW 00:46:43 58° NE 00:52:45 10° ESE visible
19 Jul 8.4 02:27:24 10° NW 02:32:53 38° WSW 02:36:53 18° S visible
19 Jul 9.6 23:03:28 10° NW 23:08:33 28° NNE 23:13:44 10° E visible
20 Jul 8.0 00:49:49 10° NW 00:55:49 75° NE 01:01:21 13° SE visible
20 Jul 8.9 02:36:42 10° NW 02:41:42 28° WSW 02:44:46 19° SSW visible
20 Jul 9.3 23:12:32 10° NW 23:17:53 33° NNE 23:23:21 10° E visible
21 Jul 7.8 00:58:51 10° NW 01:04:52 85° SW 01:09:22 19° SE visible
21 Jul 9.3 02:46:12 10° WNW 02:50:27 20° WSW 02:52:48 16° SW visible
21 Jul 9.0 23:21:33 10° NW 23:27:10 40° NE 23:32:53 10° ESE visible
22 Jul 7.9 01:07:54 10° NW 01:13:51 64° WSW 01:17:30 25° SSE visible
22 Jul 9.6 02:56:07 10° WNW 02:59:07 14° WSW 03:00:56 13° WSW visible
22 Jul 9.8 21:43:58 10° NW 21:48:40 23° NNE 21:53:25 10° ENE visible
22 Jul 8.6 23:30:34 10° NW 23:36:22 50° NE 23:42:16 10° ESE visible
23 Jul 8.2 01:17:03 10° NW 01:22:46 47° WSW 01:25:42 27° S visible
23 Jul 9.6 21:53:08 10° NW 21:58:04 26° NNE 22:03:05 10° ENE visible
23 Jul 8.2 23:39:34 10° NW 23:45:32 63° NE 23:50:33 16° SE visible
24 Jul 8.7 01:26:15 10° NW 01:31:37 35° WSW 01:34:00 26° SSW visible
24 Jul 9.4 22:02:15 10° NW 22:07:26 30° NNE 22:12:44 10° E visible
